CSC8633 ZUCK-ZULS

Flight info

Callsign CSC8633
Flight time 2h 31m
Altitude 38100
Route URGEG1Z URGEG W80 WFX B213 LXA
Aircraft A319/M-SDE3FGHIRWY/LB1

Departure

Time 2026-04-22 12:57
Airport Chongqing Jiangbei International Airport (ZUCK)

Arrival

Time 2026-04-22 15:29
Airport Lhasa Gonggar International Airport (ZULS)
Time Latitude Longitude Altitude Speed Heading
2026-04-22 12:47 29.71428 106.64978 1353 ft 0 kts 102°
2026-04-22 12:51 29.71428 106.64975 1353 ft 0 kts 131°
2026-04-22 12:51 29.71429 106.64971 1353 ft 2 kts 162°
2026-04-22 12:52 29.71439 106.64971 1353 ft 0 kts 261°
2026-04-22 12:53 29.71423 106.64924 1354 ft 16 kts 250°
2026-04-22 12:54 29.71367 106.64811 1355 ft 17 kts 202°
2026-04-22 12:54 29.71257 106.64742 1356 ft 19 kts 221°
2026-04-22 12:54 29.71153 106.64638 1358 ft 20 kts 221°
2026-04-22 12:54 29.71017 106.64549 1357 ft 24 kts 196°
2026-04-22 12:55 29.70850 106.64490 1357 ft 26 kts 197°
2026-04-22 12:55 29.70674 106.64430 1357 ft 27 kts 196°
2026-04-22 12:55 29.70486 106.64366 1357 ft 29 kts 196°
2026-04-22 12:55 29.70425 106.64287 1358 ft 11 kts 281°
2026-04-22 12:56 29.70450 106.64186 1358 ft 19 kts 287°
2026-04-22 12:56 29.70510 106.64080 1360 ft 16 kts
2026-04-22 12:56 29.70624 106.64116 1360 ft 20 kts 18°
2026-04-22 12:56 29.70904 106.64213 1358 ft 68 kts 17°
2026-04-22 12:57 29.71537 106.64432 1358 ft 121 kts 17°
2026-04-22 12:57 29.72501 106.64766 1361 ft 167 kts 16°
2026-04-22 12:57 29.73614 106.65156 1893 ft 166 kts 16°
2026-04-22 12:57 29.74720 106.65539 2518 ft 166 kts 17°
2026-04-22 12:58 29.75832 106.65920 3175 ft 170 kts 16°
2026-04-22 12:58 29.77038 106.66332 3531 ft 192 kts 16°
2026-04-22 12:58 29.78423 106.66648 3820 ft 217 kts 358°
2026-04-22 12:58 29.79884 106.66015 4155 ft 245 kts 321°
2026-04-22 12:59 29.80912 106.64355 4805 ft 263 kts 299°
2026-04-22 12:59 29.81722 106.62442 5711 ft 268 kts 296°
2026-04-22 12:59 29.82482 106.60471 6649 ft 271 kts 296°
2026-04-22 12:59 29.83241 106.58471 7540 ft 274 kts 296°
2026-04-22 13:00 29.84017 106.56447 8403 ft 278 kts 297°
2026-04-22 13:00 29.84817 106.54403 9284 ft 282 kts 297°
2026-04-22 13:00 29.85636 106.52332 10118 ft 286 kts 297°
2026-04-22 13:00 29.86497 106.50180 10476 ft 308 kts 297°
2026-04-22 13:01 29.87436 106.47859 10713 ft 331 kts 297°
2026-04-22 13:01 29.88422 106.45415 11226 ft 341 kts 297°
2026-04-22 13:01 29.89425 106.42919 11910 ft 345 kts 296°
2026-04-22 13:01 29.90436 106.40395 12621 ft 348 kts 296°
2026-04-22 13:02 29.91455 106.37849 13331 ft 352 kts 296°
2026-04-22 13:02 29.92435 106.35249 13982 ft 356 kts 291°
2026-04-22 13:02 29.93246 106.32538 14600 ft 358 kts 290°
2026-04-22 13:02 29.94013 106.29832 15229 ft 361 kts 289°
2026-04-22 13:03 29.94776 106.27065 15861 ft 363 kts 288°
2026-04-22 13:03 29.95535 106.24281 16493 ft 365 kts 288°
2026-04-22 13:03 29.96303 106.21473 17117 ft 368 kts 288°
2026-04-22 13:03 29.97083 106.18649 17730 ft 371 kts 287°
2026-04-22 13:04 29.97872 106.15803 18333 ft 374 kts 287°
2026-04-22 13:04 29.98671 106.12937 18877 ft 377 kts 287°
2026-04-22 13:04 29.99473 106.10052 19459 ft 378 kts 287°
2026-04-22 13:04 30.00279 106.07153 20037 ft 380 kts 287°
2026-04-22 13:05 30.01087 106.04242 20624 ft 382 kts 287°
2026-04-22 13:05 30.01896 106.01321 21199 ft 383 kts 287°
2026-04-22 13:05 30.02712 105.98377 21745 ft 385 kts 287°
2026-04-22 13:05 30.03531 105.95423 22219 ft 388 kts 287°
2026-04-22 13:06 30.04358 105.92438 22698 ft 391 kts 287°
2026-04-22 13:06 30.05177 105.89485 23180 ft 393 kts 287°
2026-04-22 13:06 30.06016 105.86464 23640 ft 396 kts 287°
2026-04-22 13:06 30.06855 105.83431 24048 ft 398 kts 287°
2026-04-22 13:07 30.07694 105.80382 24456 ft 399 kts 287°
2026-04-22 13:07 30.08534 105.77315 24868 ft 400 kts 286°
2026-04-22 13:07 30.09374 105.74249 25269 ft 402 kts 286°
2026-04-22 13:07 30.10217 105.71168 25669 ft 403 kts 286°
2026-04-22 13:08 30.11065 105.68068 26073 ft 405 kts 286°
2026-04-22 13:08 30.11915 105.64964 26475 ft 406 kts 286°
2026-04-22 13:08 30.12766 105.61853 26862 ft 407 kts 286°
2026-04-22 13:08 30.13623 105.58720 27239 ft 409 kts 286°
2026-04-22 13:09 30.14484 105.55573 27602 ft 411 kts 286°
2026-04-22 13:09 30.15347 105.52418 27961 ft 413 kts 286°
2026-04-22 13:09 30.16215 105.49241 28309 ft 415 kts 286°
2026-04-22 13:09 30.17087 105.46040 28653 ft 417 kts 286°
2026-04-22 13:10 30.17945 105.42871 28984 ft 419 kts 285°
2026-04-22 13:10 30.18820 105.39640 29317 ft 421 kts 285°
2026-04-22 13:10 30.19701 105.36397 29627 ft 423 kts 285°
2026-04-22 13:10 30.20584 105.33146 29941 ft 425 kts 285°
2026-04-22 13:11 30.21473 105.29869 30229 ft 427 kts 285°
2026-04-22 13:11 30.22363 105.26589 30494 ft 429 kts 284°
2026-04-22 13:11 30.23254 105.23298 30824 ft 428 kts 284°
2026-04-22 13:11 30.24140 105.20024 31257 ft 425 kts 284°
2026-04-22 13:12 30.25018 105.16771 31709 ft 422 kts 284°
2026-04-22 13:12 30.25890 105.13540 32166 ft 419 kts 283°
2026-04-22 13:12 30.26754 105.10331 32634 ft 415 kts 283°
2026-04-22 13:12 30.27607 105.07154 33115 ft 412 kts 282°
2026-04-22 13:13 30.28455 105.03997 33599 ft 409 kts 282°
2026-04-22 13:13 30.29292 105.00870 34084 ft 405 kts 282°
2026-04-22 13:13 30.30122 104.97773 34524 ft 401 kts 282°
2026-04-22 13:13 30.30943 104.94708 34989 ft 397 kts 282°
2026-04-22 13:14 30.31744 104.91716 35472 ft 392 kts 282°
2026-04-22 13:14 30.32548 104.88715 35906 ft 388 kts 282°
2026-04-22 13:14 30.33343 104.85744 36335 ft 385 kts 282°
2026-04-22 13:14 30.34129 104.82801 36763 ft 381 kts 282°
2026-04-22 13:15 30.34904 104.79890 37194 ft 377 kts 282°
2026-04-22 13:15 30.35672 104.77006 37615 ft 373 kts 282°
2026-04-22 13:15 30.36428 104.74153 38016 ft 369 kts 282°
2026-04-22 13:15 30.37177 104.71314 38126 ft 366 kts 282°
2026-04-22 13:16 30.37920 104.68509 38140 ft 363 kts 282°
2026-04-22 13:16 30.39398 104.62935 38146 ft 361 kts 282°
2026-04-22 13:17 30.40871 104.57371 38151 ft 361 kts 282°
2026-04-22 13:17 30.42336 104.51805 38152 ft 361 kts 282°
2026-04-22 13:18 30.43797 104.46243 38149 ft 361 kts 282°
2026-04-22 13:18 30.45263 104.40675 38148 ft 361 kts 282°
2026-04-22 13:19 30.46722 104.35111 38146 ft 361 kts 282°
2026-04-22 13:19 30.48179 104.29541 38142 ft 361 kts 282°
2026-04-22 13:20 30.49634 104.23969 38143 ft 361 kts 282°
2026-04-22 13:20 30.51088 104.18396 38126 ft 361 kts 282°
2026-04-22 13:21 30.52548 104.12804 38121 ft 363 kts 282°
2026-04-22 13:21 30.54010 104.07193 38129 ft 364 kts 282°
2026-04-22 13:22 30.55462 104.01577 38170 ft 364 kts 282°
2026-04-22 13:22 30.56903 103.95979 38174 ft 364 kts 282°
2026-04-22 13:23 30.58398 103.90358 38181 ft 365 kts 283°
2026-04-22 13:23 30.59987 103.84757 38174 ft 365 kts 283°
2026-04-22 13:24 30.61589 103.79142 38167 ft 366 kts 283°
2026-04-22 13:24 30.63165 103.73506 38161 ft 367 kts 283°
2026-04-22 13:25 30.64723 103.67855 38152 ft 367 kts 282°
2026-04-22 13:25 30.66137 103.62202 38156 ft 367 kts 281°
2026-04-22 13:26 30.67487 103.56476 38155 ft 367 kts 281°
2026-04-22 13:26 30.68843 103.50761 38154 ft 367 kts 281°
2026-04-22 13:27 30.70226 103.45040 38165 ft 368 kts 281°
2026-04-22 13:27 30.71610 103.39317 38167 ft 368 kts 281°
2026-04-22 13:28 30.72990 103.33572 38201 ft 369 kts 281°
2026-04-22 13:28 30.74376 103.27816 38197 ft 370 kts 281°
2026-04-22 13:29 30.75751 103.22088 38197 ft 370 kts 281°
2026-04-22 13:29 30.77131 103.16319 38218 ft 370 kts 281°
2026-04-22 13:30 30.78502 103.10556 38214 ft 370 kts 281°
2026-04-22 13:30 30.79877 103.04779 38225 ft 370 kts 281°
2026-04-22 13:31 30.80573 102.98927 38235 ft 364 kts 267°
2026-04-22 13:31 30.80483 102.93988 38237 ft 365 kts 266°
2026-04-22 13:32 30.80362 102.87153 38234 ft 364 kts 267°
2026-04-22 13:32 30.80276 102.82218 38235 ft 365 kts 267°
2026-04-22 13:33 30.80178 102.76320 38232 ft 364 kts 267°
2026-04-22 13:33 30.80063 102.70439 38208 ft 361 kts 267°
2026-04-22 13:34 30.79947 102.64658 38211 ft 360 kts 267°
2026-04-22 13:34 30.79836 102.58779 38190 ft 364 kts 267°
2026-04-22 13:35 30.79711 102.52886 38200 ft 365 kts 267°
2026-04-22 13:35 30.79583 102.46976 38175 ft 365 kts 267°
2026-04-22 13:36 30.79455 102.41069 38182 ft 366 kts 267°
2026-04-22 13:36 30.79333 102.35145 38216 ft 366 kts 267°
2026-04-22 13:37 30.79208 102.29208 38191 ft 366 kts 267°
2026-04-22 13:37 30.79074 102.23283 38190 ft 366 kts 267°
2026-04-22 13:38 30.78938 102.17367 38136 ft 365 kts 266°
2026-04-22 13:38 30.78721 102.08523 38105 ft 361 kts 268°
2026-04-22 13:39 30.78586 102.02660 38127 ft 364 kts 268°
2026-04-22 13:39 30.78447 101.96812 38118 ft 364 kts 266°
2026-04-22 13:40 30.78302 101.91014 38089 ft 356 kts 268°
2026-04-22 13:40 30.78704 101.85197 38069 ft 362 kts 273°
2026-04-22 13:41 30.79193 101.79366 38070 ft 362 kts 272°
2026-04-22 13:41 30.79677 101.73538 38041 ft 362 kts 273°
2026-04-22 13:42 30.80153 101.67793 38045 ft 353 kts 272°
2026-04-22 13:42 30.80631 101.62020 38060 ft 364 kts 272°
2026-04-22 13:43 30.81109 101.56115 38052 ft 368 kts 272°
2026-04-22 13:43 30.81584 101.50213 38049 ft 368 kts 272°
2026-04-22 13:44 30.82073 101.44282 38049 ft 368 kts 272°
2026-04-22 13:44 30.82548 101.38353 38044 ft 367 kts 272°
2026-04-22 13:45 30.83022 101.32439 38043 ft 367 kts 272°
2026-04-22 13:45 30.83498 101.26520 38030 ft 368 kts 272°
2026-04-22 13:46 30.83965 101.20574 38035 ft 369 kts 272°
2026-04-22 13:46 30.84428 101.14612 38029 ft 371 kts 272°
2026-04-22 13:47 30.84892 101.08621 38030 ft 372 kts 271°
2026-04-22 13:47 30.85358 101.02618 38028 ft 372 kts 271°
2026-04-22 13:48 30.85825 100.96601 38061 ft 374 kts 272°
2026-04-22 13:48 30.86289 100.90578 38068 ft 374 kts 271°
2026-04-22 13:49 30.86746 100.84542 38082 ft 374 kts 272°
2026-04-22 13:49 30.87204 100.78525 38068 ft 373 kts 272°
2026-04-22 13:50 30.87652 100.72555 38059 ft 373 kts 271°
2026-04-22 13:50 30.88097 100.66533 38081 ft 374 kts 271°
2026-04-22 13:51 30.88546 100.60490 38083 ft 374 kts 271°
2026-04-22 13:51 30.88998 100.54453 38075 ft 375 kts 272°
2026-04-22 13:52 30.89438 100.48411 38074 ft 378 kts 272°
2026-04-22 13:52 30.89882 100.42302 38072 ft 380 kts 272°
2026-04-22 13:53 30.90326 100.36166 38064 ft 380 kts 272°
2026-04-22 13:53 30.90773 100.30022 38084 ft 381 kts 272°
2026-04-22 13:54 30.91210 100.23907 38092 ft 381 kts 272°
2026-04-22 13:54 30.91642 100.17747 38101 ft 381 kts 272°
2026-04-22 13:55 30.92083 100.11574 38115 ft 382 kts 272°
2026-04-22 13:55 30.92516 100.05403 38109 ft 382 kts 272°
2026-04-22 13:56 30.92943 99.99233 38117 ft 382 kts 272°
2026-04-22 13:56 30.93417 99.93098 38140 ft 382 kts 273°
2026-04-22 13:57 30.93921 99.86938 38147 ft 382 kts 273°
2026-04-22 13:57 30.94409 99.80845 38151 ft 373 kts 274°
2026-04-22 13:58 30.94885 99.74826 38132 ft 374 kts 274°
2026-04-22 13:58 30.95356 99.68773 38130 ft 376 kts 273°
2026-04-22 13:59 30.95828 99.62697 38135 ft 377 kts 273°
2026-04-22 13:59 30.96296 99.56652 38137 ft 377 kts 273°
2026-04-22 14:00 30.96550 99.53308 38116 ft 369 kts 273°
2026-04-22 14:00 30.97004 99.47349 38112 ft 370 kts 273°
2026-04-22 14:01 30.97463 99.41317 38105 ft 377 kts 274°
2026-04-22 14:01 30.97919 99.35203 38104 ft 380 kts 274°
2026-04-22 14:02 30.98383 99.29051 38110 ft 381 kts 274°
2026-04-22 14:02 30.98843 99.22885 38124 ft 383 kts 274°
2026-04-22 14:03 30.99292 99.16765 38112 ft 380 kts 274°
2026-04-22 14:03 30.99739 99.10615 38110 ft 381 kts 274°
2026-04-22 14:04 31.00192 99.04436 38103 ft 383 kts 274°
2026-04-22 14:04 31.00641 98.98249 38106 ft 383 kts 273°
2026-04-22 14:05 31.01086 98.92070 38106 ft 382 kts 273°
2026-04-22 14:06 31.01745 98.82798 38106 ft 382 kts 273°
2026-04-22 14:06 31.02188 98.76615 38116 ft 383 kts 273°
2026-04-22 14:07 31.02620 98.70431 38092 ft 382 kts 274°
2026-04-22 14:07 31.03048 98.64323 38077 ft 382 kts 274°
2026-04-22 14:08 31.03561 98.58117 38091 ft 385 kts 275°
2026-04-22 14:08 31.04106 98.51899 38096 ft 386 kts 274°
2026-04-22 14:09 31.04628 98.45674 38109 ft 386 kts 274°
2026-04-22 14:09 31.05133 98.39434 38113 ft 387 kts 275°
2026-04-22 14:10 31.05642 98.33182 38146 ft 387 kts 275°
2026-04-22 14:10 31.06155 98.26924 38154 ft 386 kts 274°
2026-04-22 14:11 31.06657 98.20693 38152 ft 385 kts 274°
2026-04-22 14:11 31.07150 98.14476 38159 ft 385 kts 274°
2026-04-22 14:12 31.07648 98.08266 38167 ft 384 kts 274°
2026-04-22 14:12 31.08152 98.02100 38165 ft 384 kts 274°
2026-04-22 14:13 31.08650 97.95905 38150 ft 383 kts 275°
2026-04-22 14:13 31.09144 97.89688 38139 ft 386 kts 275°
2026-04-22 14:14 31.09639 97.83434 38138 ft 387 kts 275°
2026-04-22 14:14 31.10137 97.77165 38141 ft 388 kts 275°
2026-04-22 14:15 31.10631 97.70897 38143 ft 388 kts 275°
2026-04-22 14:15 31.11115 97.64629 38149 ft 388 kts 275°
2026-04-22 14:16 31.11600 97.58332 38130 ft 389 kts 274°
2026-04-22 14:16 31.12082 97.52032 38118 ft 389 kts 275°
2026-04-22 14:17 31.12555 97.45770 38122 ft 390 kts 275°
2026-04-22 14:17 31.12954 97.40518 38126 ft 390 kts 275°
2026-04-22 14:18 31.13512 97.33138 38134 ft 390 kts 275°
2026-04-22 14:18 31.13983 97.26857 38126 ft 390 kts 275°
2026-04-22 14:19 31.14445 97.20544 38133 ft 390 kts 274°
2026-04-22 14:19 31.14162 97.15298 38137 ft 391 kts 259°
2026-04-22 14:20 31.12175 97.06039 38143 ft 391 kts 258°
2026-04-22 14:20 31.10848 96.99861 38132 ft 392 kts 258°
2026-04-22 14:21 31.08863 96.90601 38160 ft 392 kts 258°
2026-04-22 14:22 31.06876 96.81386 38159 ft 392 kts 258°
2026-04-22 14:23 31.04872 96.72126 38159 ft 393 kts 258°
2026-04-22 14:23 31.03527 96.65934 38147 ft 392 kts 258°
2026-04-22 14:24 31.02186 96.59764 38168 ft 394 kts 258°
2026-04-22 14:24 31.00845 96.53611 38191 ft 395 kts 258°
2026-04-22 14:25 30.99487 96.47405 38186 ft 395 kts 258°
2026-04-22 14:25 30.98118 96.41196 38187 ft 395 kts 258°
2026-04-22 14:26 30.96794 96.34992 38185 ft 394 kts 259°
2026-04-22 14:26 30.95500 96.28784 38177 ft 394 kts 259°
2026-04-22 14:27 30.94198 96.22608 38176 ft 395 kts 259°
2026-04-22 14:27 30.92873 96.16384 38176 ft 396 kts 259°
2026-04-22 14:28 30.91551 96.10180 38155 ft 394 kts 259°
2026-04-22 14:28 30.90222 96.03974 38146 ft 395 kts 258°
2026-04-22 14:29 30.88888 95.97749 38143 ft 395 kts 258°
2026-04-22 14:29 30.87560 95.91540 38134 ft 396 kts 259°
2026-04-22 14:30 30.86219 95.85297 38164 ft 398 kts 258°
2026-04-22 14:30 30.84881 95.79089 38168 ft 397 kts 258°
2026-04-22 14:31 30.83530 95.72854 38146 ft 397 kts 258°
2026-04-22 14:31 30.82220 95.66620 38139 ft 397 kts 259°
2026-04-22 14:32 30.80946 95.60381 38149 ft 396 kts 259°
2026-04-22 14:32 30.79671 95.54138 38155 ft 397 kts 259°
2026-04-22 14:33 30.78378 95.47883 38152 ft 398 kts 259°
2026-04-22 14:33 30.77074 95.41626 38153 ft 398 kts 259°
2026-04-22 14:34 30.75772 95.35370 38167 ft 398 kts 259°
2026-04-22 14:34 30.74478 95.29162 38191 ft 397 kts 259°
2026-04-22 14:35 30.73169 95.22923 38201 ft 396 kts 259°
2026-04-22 14:35 30.71861 95.16717 38208 ft 396 kts 259°
2026-04-22 14:36 30.70550 95.10525 38196 ft 394 kts 259°
2026-04-22 14:36 30.69243 95.04337 38193 ft 394 kts 259°
2026-04-22 14:37 30.67938 94.98140 38202 ft 395 kts 259°
2026-04-22 14:37 30.66630 94.91951 38208 ft 394 kts 259°
2026-04-22 14:38 30.65333 94.85861 38196 ft 392 kts 259°
2026-04-22 14:38 30.64025 94.79713 38194 ft 393 kts 259°
2026-04-22 14:39 30.62709 94.73547 38212 ft 393 kts 259°
2026-04-22 14:39 30.61396 94.67413 38185 ft 391 kts 259°
2026-04-22 14:40 30.59424 94.58213 38167 ft 393 kts 258°
2026-04-22 14:40 30.58095 94.52064 38181 ft 392 kts 258°
2026-04-22 14:41 30.56767 94.45943 38189 ft 391 kts 259°
2026-04-22 14:41 30.55443 94.39856 38191 ft 391 kts 258°
2026-04-22 14:42 30.54112 94.33736 38177 ft 391 kts 259°
2026-04-22 14:42 30.52789 94.27608 38180 ft 391 kts 258°
2026-04-22 14:43 30.51454 94.21500 38182 ft 391 kts 258°
2026-04-22 14:43 30.50139 94.15377 38165 ft 390 kts 259°
2026-04-22 14:44 30.48877 94.09241 38181 ft 391 kts 259°
2026-04-22 14:44 30.47610 94.03095 38180 ft 392 kts 259°
2026-04-22 14:45 30.46342 93.96958 38186 ft 392 kts 259°
2026-04-22 14:45 30.45056 93.90813 38198 ft 392 kts 259°
2026-04-22 14:46 30.43768 93.84679 38191 ft 392 kts 259°
2026-04-22 14:46 30.42480 93.78569 38178 ft 393 kts 258°
2026-04-22 14:47 30.41184 93.72421 38194 ft 393 kts 258°
2026-04-22 14:47 30.39881 93.66265 38188 ft 394 kts 258°
2026-04-22 14:48 30.38506 93.60103 38192 ft 397 kts 253°
2026-04-22 14:48 30.36215 93.54234 38200 ft 400 kts 248°
2026-04-22 14:49 30.33852 93.48398 38168 ft 400 kts 248°
2026-04-22 14:49 30.31485 93.42557 38180 ft 400 kts 248°
2026-04-22 14:50 30.29123 93.36721 38177 ft 400 kts 247°
2026-04-22 14:50 30.26747 93.30883 38209 ft 403 kts 247°
2026-04-22 14:51 30.24375 93.25061 38196 ft 401 kts 248°
2026-04-22 14:51 30.21995 93.19228 38186 ft 400 kts 248°
2026-04-22 14:52 30.19615 93.13399 38191 ft 402 kts 248°
2026-04-22 14:52 30.17219 93.07565 38191 ft 400 kts 248°
2026-04-22 14:53 30.14825 93.01736 38206 ft 402 kts 248°
2026-04-22 14:53 30.12421 92.95895 38192 ft 403 kts 248°
2026-04-22 14:54 30.10016 92.90049 38222 ft 402 kts 248°
2026-04-22 14:54 30.07613 92.84216 38195 ft 402 kts 248°
2026-04-22 14:55 30.05221 92.78424 38197 ft 402 kts 248°
2026-04-22 14:55 30.02807 92.72585 38225 ft 404 kts 247°
2026-04-22 14:56 30.00390 92.66734 38229 ft 403 kts 247°
2026-04-22 14:56 29.97965 92.60890 38222 ft 404 kts 248°
2026-04-22 14:57 29.95533 92.55029 38232 ft 405 kts 248°
2026-04-22 14:57 29.93095 92.49168 38235 ft 406 kts 247°
2026-04-22 14:58 29.90645 92.43305 38239 ft 405 kts 248°
2026-04-22 14:58 29.88218 92.37489 38243 ft 405 kts 247°
2026-04-22 14:59 29.85773 92.31643 38231 ft 405 kts 247°
2026-04-22 14:59 29.83309 92.25784 38227 ft 406 kts 247°
2026-04-22 15:00 29.80851 92.19932 38196 ft 406 kts 247°
2026-04-22 15:00 29.78394 92.14074 38227 ft 406 kts 247°
2026-04-22 15:01 29.75938 92.08234 38209 ft 405 kts 247°
2026-04-22 15:01 29.73479 92.02392 38213 ft 405 kts 247°
2026-04-22 15:02 29.71026 91.96567 38204 ft 405 kts 247°
2026-04-22 15:02 29.68561 91.90726 38179 ft 406 kts 247°
2026-04-22 15:03 29.67345 91.87844 37839 ft 406 kts 247°
2026-04-22 15:03 29.66081 91.84851 36776 ft 415 kts 247°
2026-04-22 15:03 29.64820 91.81875 35760 ft 422 kts 247°
2026-04-22 15:03 29.63523 91.78819 34762 ft 428 kts 247°
2026-04-22 15:04 29.62210 91.75725 33774 ft 433 kts 247°
2026-04-22 15:04 29.60881 91.72601 32669 ft 437 kts 246°
2026-04-22 15:04 29.59535 91.69448 31457 ft 442 kts 246°
2026-04-22 15:04 29.58174 91.66255 30261 ft 448 kts 246°
2026-04-22 15:05 29.56807 91.63049 29356 ft 444 kts 246°
2026-04-22 15:05 29.55896 91.60916 28981 ft 437 kts 246°
2026-04-22 15:05 29.54140 91.56807 28166 ft 427 kts 246°
2026-04-22 15:05 29.53277 91.54787 27761 ft 422 kts 247°
2026-04-22 15:06 29.51994 91.51786 27151 ft 415 kts 246°
2026-04-22 15:06 29.50322 91.47880 26392 ft 409 kts 246°
2026-04-22 15:06 29.49075 91.44956 25808 ft 406 kts 246°
2026-04-22 15:06 29.48239 91.42997 25423 ft 404 kts 246°
2026-04-22 15:07 29.47004 91.40103 24848 ft 403 kts 246°
2026-04-22 15:07 29.45770 91.37216 24281 ft 402 kts 246°
2026-04-22 15:07 29.44555 91.34382 23730 ft 401 kts 246°
2026-04-22 15:07 29.43320 91.31504 23137 ft 400 kts 246°
2026-04-22 15:08 29.42093 91.28645 22601 ft 399 kts 246°
2026-04-22 15:08 29.40870 91.25798 22117 ft 396 kts 246°
2026-04-22 15:08 29.39668 91.23008 21859 ft 385 kts 246°
2026-04-22 15:08 29.38503 91.20312 21761 ft 370 kts 246°
2026-04-22 15:09 29.37377 91.17713 21618 ft 357 kts 246°
2026-04-22 15:09 29.36289 91.15198 21463 ft 347 kts 246°
2026-04-22 15:09 29.35232 91.12750 21314 ft 337 kts 247°
2026-04-22 15:09 29.34206 91.10376 21167 ft 328 kts 247°
2026-04-22 15:10 29.33219 91.08060 21023 ft 317 kts 250°
2026-04-22 15:10 29.32673 91.05684 20893 ft 302 kts 269°
2026-04-22 15:10 29.32782 91.03343 20765 ft 289 kts 285°
2026-04-22 15:10 29.33445 91.01234 20628 ft 277 kts 300°
2026-04-22 15:11 29.34399 90.99292 20170 ft 282 kts 300°
2026-04-22 15:11 29.35275 90.97253 19736 ft 288 kts 296°
2026-04-22 15:11 29.36023 90.95107 19297 ft 293 kts 291°
2026-04-22 15:11 29.36616 90.92884 18856 ft 298 kts 287°
2026-04-22 15:12 29.37061 90.90526 18430 ft 305 kts 282°
2026-04-22 15:12 29.37331 90.88083 17921 ft 311 kts 277°
2026-04-22 15:12 29.37414 90.85585 17442 ft 315 kts 271°
2026-04-22 15:12 29.37307 90.83067 16965 ft 318 kts 266°
2026-04-22 15:13 29.37003 90.80543 16484 ft 321 kts 261°
2026-04-22 15:13 29.36484 90.78041 16010 ft 324 kts 252°
2026-04-22 15:13 29.35266 90.75876 15855 ft 328 kts 224°
2026-04-22 15:13 29.33270 90.74592 14939 ft 333 kts 192°
2026-04-22 15:14 29.31033 90.74641 14587 ft 317 kts 162°
2026-04-22 15:14 29.29205 90.75898 14299 ft 303 kts 131°
2026-04-22 15:14 29.28262 90.77929 13979 ft 289 kts 98°
2026-04-22 15:14 29.28334 90.80134 13740 ft 268 kts 72°
2026-04-22 15:15 29.29046 90.82038 13316 ft 258 kts 61°
2026-04-22 15:15 29.29726 90.83908 12781 ft 249 kts 79°
2026-04-22 15:15 29.29887 90.85858 13009 ft 248 kts 86°
2026-04-22 15:15 29.29930 90.87918 13302 ft 277 kts 95°
2026-04-22 15:16 29.29661 90.90188 13520 ft 287 kts 99°
2026-04-22 15:16 29.29339 90.92356 14570 ft 267 kts 97°
2026-04-22 15:16 29.29328 90.94449 15399 ft 260 kts 83°
2026-04-22 15:16 29.29564 90.96498 16112 ft 260 kts 79°
2026-04-22 15:17 29.29845 90.98525 16787 ft 261 kts 79°
2026-04-22 15:17 29.30119 91.00590 17462 ft 263 kts 75°
2026-04-22 15:17 29.30649 91.02592 18087 ft 265 kts 65°
2026-04-22 15:17 29.31417 91.04562 18256 ft 282 kts 67°
2026-04-22 15:18 29.31914 91.06846 18294 ft 310 kts 77°
2026-04-22 15:18 29.32378 91.09350 18283 ft 329 kts 75°
2026-04-22 15:18 29.32894 91.11921 18280 ft 332 kts 75°
2026-04-22 15:18 29.33414 91.14505 18282 ft 333 kts 75°
2026-04-22 15:19 29.33938 91.17090 18284 ft 334 kts 75°
2026-04-22 15:19 29.34498 91.19688 18442 ft 337 kts 70°
2026-04-22 15:19 29.35620 91.22012 18941 ft 334 kts 46°
2026-04-22 15:19 29.37433 91.23647 19479 ft 333 kts 24°
2026-04-22 15:20 29.39654 91.24342 20057 ft 333 kts
2026-04-22 15:20 29.41950 91.24074 20636 ft 334 kts 347°
2026-04-22 15:20 29.44225 91.23513 21225 ft 335 kts 346°
2026-04-22 15:20 29.46371 91.22508 21980 ft 328 kts 324°
2026-04-22 15:21 29.47927 91.20712 22817 ft 313 kts 304°
2026-04-22 15:21 29.48734 91.18433 23122 ft 309 kts 281°
2026-04-22 15:21 29.48656 91.15975 23259 ft 313 kts 257°
2026-04-22 15:21 29.47693 91.13726 23278 ft 320 kts 234°
2026-04-22 15:22 29.45973 91.12069 23278 ft 329 kts 210°
2026-04-22 15:22 29.43866 91.11092 23275 ft 329 kts 205°
2026-04-22 15:22 29.42014 91.09737 23277 ft 307 kts 230°
2026-04-22 15:22 29.40804 91.07814 23257 ft 293 kts 244°
2026-04-22 15:23 29.39849 91.05757 22888 ft 292 kts 250°
2026-04-22 15:23 29.39098 91.03595 22472 ft 293 kts 256°
2026-04-22 15:23 29.38540 91.01318 21812 ft 300 kts 262°
2026-04-22 15:23 29.38249 90.98936 21193 ft 304 kts 269°
2026-04-22 15:24 29.38098 90.96465 20455 ft 317 kts 269°
2026-04-22 15:24 29.37967 90.93902 19735 ft 327 kts 269°
2026-04-22 15:24 29.37848 90.91250 19056 ft 338 kts 269°
2026-04-22 15:24 29.37735 90.88526 18370 ft 346 kts 269°
2026-04-22 15:25 29.37628 90.85744 17602 ft 352 kts 269°
2026-04-22 15:25 29.37531 90.82916 16848 ft 358 kts 269°
2026-04-22 15:25 29.37442 90.80078 16440 ft 352 kts 269°
2026-04-22 15:25 29.36947 90.77370 16304 ft 352 kts 248°
2026-04-22 15:26 29.35586 90.75033 16347 ft 349 kts 225°
2026-04-22 15:26 29.33632 90.73500 16314 ft 337 kts 203°
2026-04-22 15:26 29.31424 90.73129 16273 ft 320 kts 173°
2026-04-22 15:26 29.29426 90.74053 15999 ft 310 kts 140°
2026-04-22 15:27 29.28250 90.76055 14923 ft 307 kts 103°
2026-04-22 15:27 29.28328 90.78441 13879 ft 301 kts 68°
2026-04-22 15:27 29.29260 90.80579 13078 ft 300 kts 62°
2026-04-22 15:27 29.29750 90.82774 12716 ft 275 kts 89°
2026-04-22 15:28 29.29705 90.84880 12328 ft 255 kts 90°
2026-04-22 15:28 29.29761 90.86847 11916 ft 238 kts 87°
2026-04-22 15:28 29.29770 90.88651 11684 ft 217 kts 87°
2026-04-22 15:28 29.29801 90.90320 11550 ft 192 kts 88°
2026-04-22 15:29 29.29812 90.91581 11552 ft 116 kts 88°
2026-04-22 15:29 29.29821 90.92153 11533 ft 36 kts 89°
2026-04-22 15:29 29.29826 90.92449 11531 ft 41 kts 89°